Wind_Speed
47 48 48 49 49 49 48 48 47 46 45 44 44 44 44 44 43 41 40 37 35 33 33 32 31 31 29 28 27 26 25 26 26 25 25 26 27 27 28 28 27 27 29 31 32 32 32 31 30 29 29 31 34 36 37 38 38 38 40 41 40 40 40
45 46 46 46 46 46 45 45 44 44 44 43 43 42 42 41 40 39 37 36 34 33 32 32 31 30 29 28 27 27 27 27 27 26 26 26 26 26 28 30 29 28 30 31 32 32 31 30 29 29 30 32 34 36 38 38 39 40 41 41 41 41 40
43 43 44 44 43 43 43 43 43 42 42 41 41 40 40 39 38 37 36 34 32 31 31 31 31 30 29 28 28 28 28 28 27 27 26 26 27 27 29 32 31 30 31 32 33 32 32 31 30 30 31 33 36 38 39 40 41 42 42 42 41 41 41
41 41 42 42 42 41 41 42 42 41 40 39 39 38 37 36 35 35 34 32 30 29 29 29 30 29 28 27 28 28 28 28 28 28 27 28 29 31 32 33 33 33 33 34 34 33 33 32 31 31 33 35 38 40 41 42 42 42 42 42 41 41 43
40 40 40 40 40 40 40 41 40 39 38 37 36 35 34 34 34 33 32 30 28 27 27 27 28 28 27 27 27 28 28 29 29 29 30 31 31 32 33 34 35 35 34 34 34 34 34 34 33 33 35 37 39 41 42 42 42 41 42 42 43 44 45
39 39 39 39 39 39 39 39 38 36 35 34 33 33 33 33 33 32 31 29 28 27 27 27 27 27 28 28 28 29 29 29 30 30 31 31 32 33 33 34 35 35 34 35 35 35 35 35 35 36 37 38 40 41 42 42 42 42 43 44 45 46 46
39 39 39 38 37 37 38 37 36 34 33 33 32 33 33 33 33 32 31 30 29 28 28 27 27 28 28 29 29 29 29 29 30 30 30 31 31 32 33 34 34 34 34 35 35 36 36 36 36 38 39 40 41 42 42 42 43 44 45 46 46 46 47
39 39 38 38 37 37 37 37 35 34 34 34 33 33 33 32 33 32 32 31 30 29 29 29 29 29 29 29 29 29 29 29 30 30 30 31 31 32 33 33 33 34 34 35 36 37 37 37 38 39 40 41 42 43 43 44 45 45 46 47 47 48 49
38 38 37 37 36 35 36 35 34 34 34 34 34 33 33 32 33 33 33 32 31 30 30 30 30 29 29 29 30 30 31 31 32 32 32 32 32 33 33 34 34 36 37 37 38 38 38 38 39 40 41 42 43 44 45 46 46 47 47 48 49 49 49
36 36 35 34 33 32 32 32 32 32 32 32 32 31 30 29 29 29 29 29 28 28 28 28 28 28 27 27 27 28 30 31 31 32 33 33 33 34 35 36 37 38 39 39 39 39 40 40 41 43 44 44 45 46 47 48 48 49 50 50 49 49 48
32 31 31 31 30 30 30 29 29 29 28 28 28 27 25 24 24 24 25 24 24 24 25 25 25 24 24 24 25 26 28 29 30 31 32 33 33 34 36 37 38 39 40 40 41 41 42 42 43 45 46 47 47 48 48 49 50 51 51 50 49 48 48
26 27 29 29 29 29 29 28 28 27 27 26 25 25 24 23 22 23 23 23 23 23 23 22 22 22 22 23 24 26 27 29 30 32 32 33 34 35 36 38 39 40 41 42 42 43 43 44 45 46 47 48 48 49 49 50 51 51 50 50 50 49 49
21 23 26 28 29 29 30 29 29 28 26 25 24 24 23 23 23 23 23 23 24 24 24 24 24 24 24 25 26 28 29 30 32 33 34 35 36 37 38 40 41 42 43 43 44 44 45 45 46 47 47 48 49 49 50 50 50 50 50 50 50 50 49
20 20 22 24 25 27 29 30 30 29 27 26 25 24 24 24 24 25 25 25 25 26 26 26 27 28 29 30 30 30 31 32 34 35 36 37 38 39 40 42 43 43 44 44 45 45 46 46 46 46 47 48 48 49 49 49 50 50 50 50 51 51 51
23 23 24 24 24 24 26 29 29 30 29 29 28 28 28 28 29 29 29 29 29 29 29 30 31 31 32 32 32 31 32 33 34 35 37 38 38 39 40 41 42 43 43 44 45 45 46 46 46 46 47 48 48 49 49 50 50 50 50 50 51 52 52
24 26 28 29 28 28 30 32 33 34 33 32 32 32 32 32 32 32 32 32 32 32 32 32 32 32 32 33 32 32 31 32 34 35 36 37 38 38 39 39 40 41 42 43 44 45 46 46 47 47 47 48 48 49 49 49 50 50 50 51 51 52 52
26 28 30 31 31 31 33 35 37 38 37 36 36 36 36 36 35 35 35 34 34 35 36 36 36 36 37 36 35 33 32 32 33 34 36 37 38 38 38 39 40 41 42 43 44 45 46 47 48 48 48 48 48 49 49 49 50 50 51 52 52 52 53
28 29 32 33 32 32 34 36 38 38 37 37 37 37 38 38 37 37 37 37 39 40 42 42 42 41 40 39 37 35 34 34 34 35 36 38 39 40 40 41 42 44 45 46 47 48 48 49 49 49 50 50 50 50 50 51 51 52 53 53 54 54 54
30 29 30 32 33 33 34 36 38 38 38 39 39 40 40 41 41 41 43 44 46 47 47 46 45 43 42 41 39 38 37 35 35 36 38 39 40 42 42 44 46 47 48 49 50 50 51 51 51 51 52 53 53 53 53 54 54 55 55 56 56 55 56
34 32 31 31 31 33 34 34 35 36 37 38 39 40 42 43 44 45 46 47 48 48 47 47 46 45 44 43 41 41 40 39 38 39 40 42 43 44 46 48 50 52 52 53 53 54 54 54 54 55 56 56 56 56 56 57 57 57 57 57 57 57 57
34 35 34 33 33 35 36 35 35 36 36 38 40 41 42 42 43 43 44 45 46 46 47 47 47 47 46 45 44 43 43 42 42 42 43 45 47 48 50 52 54 56 56 57 57 57 58 58 58 59 59 59 59 59 59 58 58 58 58 58 58 58 58
40 39 37 35 35 35 37 38 39 41 42 42 43 43 43 42 42 43 43 44 44 44 44 45 46 47 47 46 46 46 46 46 47 47 48 50 51 53 55 57 58 60 60 60 59 59 60 61 62 61 61 61 61 61 60 60 59 59 59 59 59 59 59
49 46 43 40 38 38 38 40 41 43 44 44 43 43 43 42 43 43 43 43 43 43 44 46 47 48 48 48 49 50 50 51 52 53 55 56 57 58 60 61 62 63 63 62 60 60 60 62 62 62 62 61 61 61 60 59 59 59 59 59 59 59 59
51 49 47 46 45 45 44 43 43 43 43 44 45 46 46 46 46 46 45 46 47 49 51 51 51 51 52 52 53 54 55 56 57 58 59 60 62 63 64 64 64 64 64 63 61 60 60 61 61 62 61 61 60 60 60 59 59 59 60 60 60 60 60
54 53 51 50 51 51 50 47 46 45 46 47 48 50 51 52 52 51 52 53 54 56 58 58 57 56 56 56 57 58 60 61 62 63 64 65 66 66 67 66 66 65 64 63 61 60 60 60 60 60 60 60 60 60 59 59 59 60 60 60 60 60 60
56 57 56 55 54 55 54 52 50 50 51 52 53 54 55 56 57 57 58 58 59 61 63 63 61 61 60 60 62 63 64 64 65 66 67 69 69 69 69 68 67 66 65 63 61 60 59 59 59 58 59 59 60 60 59 59 60 60 60 60 60 61 62
58 60 60 58 58 59 59 59 58 57 57 58 59 59 59 60 61 62 62 63 63 64 65 66 65 64 63 64 66 67 67 68 69 70 71 71 71 71 71 69 68 67 65 63 61 60 59 59 59 59 59 60 60 60 60 60 60 61 61 62 62 63 64
62 62 62 61 61 63 65 65 65 64 63 62 62 63 63 63 64 65 66 67 68 68 68 68 69 68 69 70 71 71 71 72 73 73 73 73 73 73 72 70 69 67 66 64 62 61 61 60 60 60 60 60 60 60 60 60 59 60 61 61 62 62 62
67 67 66 65 65 67 68 68 69 68 67 65 65 65 66 67 67 67 67 68 70 71 71 72 72 73 75 76 76 76 76 76 76 76 76 76 76 75 73 71 69 68 67 65 64 63 62 61 61 60 60 60 60 60 60 60 59 60 60 59 59 60 61
69 70 69 67 66 68 70 70 70 71 71 72 71 70 70 70 70 69 68 67 68 69 71 73 75 77 79 80 81 81 80 80 79 79 79 79 78 76 74 72 70 69 67 66 65 64 63 62 61 60 60 60 60 60 60 60 60 60 60 60 60 61 61
70 72 73 71 70 70 72 72 71 73 75 77 77 77 77 76 75 74 74 74 73 73 74 75 77 79 81 83 84 84 84 83 82 82 81 80 78 76 73 71 70 68 66 65 64 64 64 63 62 61 61 61 61 60 60 61 61 61 62 62 62 62 62
74 75 75 76 75 74 75 75 74 74 76 78 80 81 82 82 82 82 83 84 85 85 84 84 84 84 85 87 87 88 88 87 86 84 83 80 77 73 71 69 68 67 66 66 65 64 64 64 63 63 63 62 62 62 63 63 63 63 65 65 65 64 65
77 78 79 79 80 80 80 80 79 78 80 82 84 85 86 87 87 87 89 90 91 92 92 92 92 92 92 93 93 93 92 91 89 87 84 79 75 71 70 69 69 69 68 68 67 67 67 66 66 66 65 65 65 66 66 66 66 66 67 67 67 67 67
79 80 81 82 83 83 84 85 85 84 84 86 89 90 91 92 91 91 92 93 94 95 96 97 98 98 98 98 98 97 96 94 91 88 83 79 75 72 71 71 72 72 71 71 71 71 71 71 71 71 70 71 71 71 70 70 70 70 70 70 70 70 70
81 82 83 84 84 85 86 87 88 88 88 89 91 93 94 94 95 95 95 96 97 98 99 100 100 100 100 100 99 97 95 92 89 86 81 78 76 75 74 74 74 75 75 75 74 75 75 76 76 75 75 75 76 77 76 76 75 74 74 74 74 73 73
83 83 84 84 84 85 86 88 89 91 91 92 93 94 95 96 96 97 97 98 98 98 98 99 99 99 99 98 97 94 91 88 86 84 81 79 78 78 77 77 77 78 79 79 79 79 79 79 79 79 79 79 80 80 80 80 80 80 80 79 78 78 77
85 85 85 86 86 86 87 88 89 90 91 92 93 94 95 95 96 97 98 98 98 99 99 99 99 99 99 97 96 94 91 88 87 85 84 82 81 81 80 80 80 81 82 83 83 84 84 84 83 83 84 84 84 83 83 83 84 84 84 84 83 83 82
Wind_Direction
263 264 264 265 265 266 267 268 270 271 272 272 273 274 275 276 278 279 280 280 280 279 278 277 274 273 272 272 272 271 269 269 271 273 273 272 271 272 273 273 274 279 282 283 284 284 283 283 282 283 282 278 275 273 272 273 276 280 283 286 288 290 291
264 265 266 267 268 268 269 269 270 270 271 272 273 274 275 276 277 277 277 277 277 277 275 272 270 269 268 268 268 268 268 269 271 272 272 271 271 272 272 274 276 279 281 282 282 282 282 282 282 283 281 278 276 274 274 276 278 281 283 285 287 289 290
265 266 268 269 270 270 271 271 270 270 271 272 272 273 273 274 275 274 274 274 274 273 270 268 266 266 266 266 267 269 270 271 272 272 270 268 268 269 271 276 280 282 282 282 282 281 280 280 281 282 281 278 276 275 276 277 279 281 282 284 287 288 289
267 268 269 270 270 271 271 270 270 270 271 271 271 272 272 272 272 271 271 271 270 269 268 266 265 265 265 266 268 270 271 272 273 272 270 267 268 270 274 277 279 281 281 281 281 280 279 279 281 281 279 277 276 276 277 278 279 281 283 285 288 289 291
268 269 270 270 270 271 271 271 271 271 271 272 272 272 271 270 269 268 268 268 267 267 266 265 265 264 265 266 267 269 271 273 274 273 271 270 269 271 273 275 277 279 279 279 280 280 280 281 281 280 278 276 275 276 277 279 281 283 285 288 289 290 291
268 269 269 270 271 271 271 270 271 271 271 271 271 270 269 268 267 267 266 266 266 266 265 266 265 265 265 266 267 269 271 273 274 273 272 271 271 272 273 275 277 278 279 279 280 280 280 281 281 280 278 276 276 276 278 281 284 285 287 289 290 290 290
269 269 269 270 270 270 269 269 270 270 270 269 268 267 266 267 266 266 266 266 266 266 267 267 266 266 266 267 268 269 271 272 272 272 272 272 273 274 275 276 276 277 277 278 278 278 279 280 280 280 279 278 279 280 282 284 285 286 288 289 289 289 289
269 269 269 269 269 268 268 268 268 267 266 265 264 264 264 265 266 266 266 266 266 267 267 266 265 265 265 266 267 268 268 269 269 271 272 274 275 275 275 275 275 275 275 276 277 277 278 279 280 280 280 280 281 282 284 285 285 286 287 288 288 288 289
269 268 268 268 267 267 267 267 266 264 263 263 263 264 265 265 266 266 265 265 264 264 264 263 262 263 264 265 267 268 269 269 270 271 273 274 275 275 274 274 274 274 275 276 277 277 278 279 279 280 280 281 282 283 283 284 285 286 286 287 288 289 290
268 268 267 265 264 263 263 263 263 262 262 263 263 263 263 263 263 263 262 261 260 259 260 261 262 264 265 267 269 272 273 274 274 274 275 275 275 274 274 274 274 275 275 276 277 277 278 278 279 279 280 280 281 283 283 284 285 285 286 287 287 288 288
268 267 264 261 259 258 258 259 258 258 258 258 257 257 256 256 256 257 259 260 259 259 260 261 262 264 266 271 275 278 279 280 279 279 277 276 275 274 273 273 273 274 275 276 276 277 278 278 278 279 280 281 282 283 284 284 285 285 286 286 286 286 286
268 263 259 257 254 253 253 253 252 252 251 251 251 251 252 252 252 255 259 261 261 260 260 261 261 263 269 276 281 283 283 283 282 281 279 277 274 273 272 271 272 272 274 275 276 276 277 277 277 278 280 281 281 282 283 283 284 284 284 284 284 284 284
268 262 257 254 252 250 249 248 247 246 247 249 250 251 251 251 251 252 255 257 258 259 261 262 263 265 271 279 284 286 286 284 282 281 279 278 276 274 273 272 272 272 273 274 275 275 276 276 277 278 279 279 280 281 281 281 282 282 282 282 283 283 284
267 264 259 255 251 249 247 244 243 244 247 249 251 252 252 251 250 251 253 254 257 260 263 265 267 270 275 282 286 287 286 284 282 281 280 279 278 277 276 276 275 275 276 276 276 276 276 276 277 277 278 278 279 279 280 280 280 281 281 282 283 285 286
265 264 263 259 255 250 248 247 246 248 251 253 255 256 257 256 255 254 255 257 260 263 266 269 272 275 279 283 286 287 287 285 282 281 281 280 279 279 278 279 279 279 278 278 278 277 277 277 277 277 277 278 279 279 279 279 280 280 281 283 284 286 288
259 258 259 259 257 255 255 255 255 255 257 259 260 263 264 264 263 262 262 263 266 269 272 274 275 278 282 285 288 289 289 288 285 284 283 282 281 281 281 283 283 283 282 281 280 280 280 279 279 279 278 279 279 279 280 280 281 282 282 283 284 286 287
256 255 255 255 255 256 256 257 259 261 263 264 265 267 268 268 268 269 269 270 271 273 274 275 276 279 282 286 288 289 290 290 288 287 288 286 284 284 285 287 288 288 287 286 284 284 283 282 282 282 281 281 281 281 282 282 282 282 282 283 283 285 287
264 262 259 255 253 253 254 257 260 263 265 265 267 268 269 269 269 270 271 273 275 277 277 278 278 279 281 284 286 287 289 291 289 288 289 289 288 287 288 290 292 293 292 290 288 287 286 285 284 283 283 282 282 282 282 282 282 283 283 283 284 286 288
263 264 261 257 254 254 255 258 261 263 264 265 266 267 268 268 268 270 272 275 277 279 279 279 279 279 281 284 286 288 291 292 291 289 289 290 290 289 289 291 294 296 295 294 291 289 287 285 284 283 283 283 283 283 283 283 284 285 285 286 287 288 290
259 259 257 255 256 258 259 260 261 261 263 264 265 265 266 267 269 271 273 274 275 277 277 278 278 279 282 284 288 291 293 293 293 292 291 292 292 291 290 291 294 296 296 295 293 290 288 286 284 283 283 283 283 283 284 285 285 286 287 287 288 289 290
261 260 257 257 258 259 259 260 262 264 266 268 267 267 268 268 270 270 271 271 272 273 274 275 276 278 282 286 290 293 294 294 293 292 291 291 291 289 289 290 292 294 294 294 293 290 288 286 285 284 284 284 284 285 285 286 287 288 288 289 290 290 291
260 260 258 258 261 261 260 262 264 267 270 271 271 270 269 269 269 270 269 270 271 272 273 275 277 280 284 288 291 293 294 295 294 293 292 292 291 290 290 290 291 292 293 293 292 290 288 287 286 286 286 286 286 287 288 289 289 290 291 291 292 292 292
259 261 259 257 258 259 260 262 264 266 268 269 269 269 269 269 270 270 270 270 272 274 275 277 280 284 287 289 291 293 295 295 295 294 294 294 293 293 292 292 292 292 293 293 292 291 289 288 288 288 288 288 288 289 289 289 290 290 291 291 291 290 290
256 259 259 258 257 258 259 259 261 263 264 265 267 269 270 271 272 272 272 273 274 276 276 278 281 284 287 289 292 294 296 296 296 295 294 294 294 294 294 293 293 293 293 293 292 291 289 288 287 288 288 288 288 288 288 289 289 290 290 289 289 289 288
251 254 256 257 257 257 258 259 261 262 264 266 267 269 270 271 272 272 273 274 275 277 277 278 281 284 286 288 292 295 296 296 296 295 294 294 295 295 294 294 293 293 293 292 292 290 289 288 287 287 287 288 288 288 288 289 289 289 289 289 288 288 287
250 252 254 255 256 256 257 259 261 263 266 269 270 271 272 272 272 273 273 274 275 276 278 279 280 282 284 287 292 295 295 295 295 294 294 294 295 295 294 294 293 292 292 291 291 289 289 288 287 287 287 287 287 288 288 288 288 288 288 287 287 286 286
249 251 253 255 256 256 258 259 261 263 267 270 271 272 272 273 274 275 275 276 277 278 279 280 281 283 284 288 292 294 294 295 295 294 294 295 295 295 294 293 293 292 291 291 289 289 288 287 287 286 286 286 286 286 286 286 286 286 286 285 285 285 285
248 249 251 253 255 257 258 259 260 262 266 269 271 272 272 274 275 277 278 279 280 280 280 281 282 283 286 289 292 293 294 295 295 295 295 295 295 294 293 293 292 291 290 289 288 287 287 286 285 285 285 285 285 285 285 284 284 284 284 284 284 285 286
249 249 249 251 254 257 258 259 260 261 263 266 269 270 271 272 274 275 277 277 278 279 279 280 281 283 286 289 291 292 293 294 294 294 295 295 295 294 293 291 290 290 289 288 287 286 286 285 285 284 284 284 284 284 284 284 284 283 283 283 284 285 286
252 252 251 251 253 256 258 259 260 260 261 264 267 269 270 271 273 275 276 276 276 277 277 278 279 281 284 286 288 290 291 293 293 294 294 294 294 293 291 290 289 288 288 287 287 287 287 286 286 285 285 285 285 286 286 285 285 285 284 284 284 284 285
252 253 253 253 253 256 259 260 261 262 262 263 265 267 268 270 271 274 276 277 278 278 278 278 279 280 282 283 285 288 290 291 292 292 293 292 292 290 289 288 288 287 287 286 287 287 288 288 288 287 287 287 287 287 286 285 286 286 285 284 284 285 284
252 253 253 253 253 254 257 260 263 265 266 267 267 267 268 269 270 272 274 276 277 278 279 279 280 281 282 283 285 286 288 290 290 291 291 290 289 288 287 286 286 286 285 285 286 286 286 287 287 287 287 287 287 287 286 286 287 287 286 287 287 287 287
256 255 255 254 254 254 255 257 260 263 266 268 269 269 269 269 270 271 273 274 276 277 278 279 279 280 281 282 284 285 287 288 289 289 289 288 286 285 284 284 285 285 285 286 286 286 286 286 285 285 285 285 285 284 284 285 285 285 286 287 287 288 288
260 259 258 257 256 256 256 257 258 259 262 265 268 270 270 271 272 272 273 274 276 277 278 279 280 280 281 282 283 285 286 287 287 287 286 285 284 283 283 284 285 285 286 286 287 287 287 287 287 287 287 286 286 285 284 284 284 284 284 284 284 284 285
261 261 261 260 260 260 260 260 261 261 262 264 266 269 271 272 274 274 275 276 277 278 279 280 281 282 283 283 284 285 285 286 285 285 284 284 284 284 285 285 285 286 286 286 287 287 287 288 288 288 288 287 287 287 287 286 286 285 284 283 283 283 283
262 261 261 261 261 261 262 263 264 264 265 266 267 269 271 273 274 276 277 278 278 279 279 280 281 282 282 283 283 284 284 284 284 284 284 285 285 285 285 286 286 286 286 286 286 286 286 286 286 286 286 286 286 286 287 287 287 287 286 286 286 286 285
263 263 263 263 263 263 264 265 265 266 267 269 270 271 271 272 274 275 276 277 278 278 278 279 279 280 280 281 281 281 282 282 283 283 284 284 285 285 286 286 286 286 286 286 285 285 285 285 285 285 285 285 285 286 287 287 287 287 288 288 288 287 287
Height
10652 10653 10654 10655 10657 10658 10660 10661 10662 10662 10662 10663 10663 10663 10663 10664 10664 10665 10665 10666 10666 10667 10666 10666 10667 10667 10667 10668 10668 10669 10670 10670 10670 10670 10670 10669 10668 10667 10666 10667 10669 10670 10669 10669 10669 10669 10668 10668 10669 10670 10670 10669 10668 10667 10666 10666 10668 10668 10668 10666 10665 10665 10664
10648 10648 10649 10650 10652 10653 10654 10656 10656 10657 10657 10658 10658 10659 10659 10659 10660 10661 10661 10662 10662 10662 10662 10662 10662 10662 10663 10663 10664 10665 10666 10666 10667 10666 10666 10666 10665 10664 10662 10661 10664 10665 10665 10665 10665 10665 10664 10664 10665 10666 10666 10665 10664 10663 10662 10663 10664 10664 10663 10662 10662 10661 10660
10643 10644 10644 10646 10647 10648 10649 10650 10650 10651 10652 10653 10654 10654 10654 10655 10656 10657 10657 10658 10658 10658 10658 10657 10657 10658 10659 10659 10660 10661 10661 10662 10662 10662 10662 10662 10662 10661 10658 10658 10659 10660 10661 10661 10661 10661 10661 10661 10662 10663 10663 10662 10660 10659 10658 10659 10660 10660 10658 10658 10658 10657 10656
10638 10639 10640 10641 10642 10643 10644 10644 10645 10646 10648 10648 10648 10649 10650 10651 10652 10653 10653 10654 10654 10654 10654 10653 10653 10654 10655 10655 10656 10656 10657 10658 10658 10659 10659 10659 10658 10657 10656 10655 10655 10656 10657 10657 10657 10656 10656 10657 10658 10659 10659 10658 10656 10655 10654 10654 10655 10655 10654 10654 10654 10653 10652
10634 10635 10636 10637 10637 10638 10639 10639 10640 10641 10642 10643 10643 10644 10645 10647 10648 10649 10650 10650 10650 10650 10649 10649 10650 10650 10651 10651 10652 10652 10653 10653 10654 10654 10654 10654 10654 10653 10652 10652 10652 10652 10653 10653 10653 10652 10652 10653 10654 10655 10655 10653 10652 10651 10649 10650 10650 10650 10649 10649 10648 10648 10647
10629 10630 10631 10632 10633 10634 10634 10634 10635 10636 10637 10638 10639 10640 10641 10643 10644 10645 10645 10646 10646 10645 10645 10646 10646 10646 10646 10647 10648 10648 10648 10649 10649 10650 10649 10649 10649 10649 10648 10648 10648 10648 10649 10649 10648 10648 10649 10650 10650 10651 10650 10649 10648 10646 10645 10646 10646 10645 10644 10644 10643 10643 10642
10624 10625 10626 10627 10628 10629 10629 10629 10631 10632 10633 10634 10635 10636 10637 10638 10639 10640 10641 10641 10641 10641 10641 10642 10642 10642 10642 10643 10643 10644 10644 10645 10645 10645 10645 10645 10645 10644 10644 10644 10644 10644 10644 10644 10644 10644 10645 10646 10646 10646 10645 10643 10643 10642 10641 10641 10641 10640 10640 10639 10639 10638 10637
10619 10620 10621 10622 10623 10624 10624 10625 10627 10628 10628 10629 10630 10631 10633 10634 10635 10636 10636 10636 10637 10637 10637 10637 10637 10638 10638 10638 10639 10639 10640 10640 10641 10641 10641 10641 10641 10641 10640 10640 10639 10639 10639 10639 10639 10640 10640 10641 10641 10640 10639 10638 10637 10637 10636 10636 10636 10635 10635 10634 10634 10633 10632
10614 10615 10615 10616 10617 10618 10618 10620 10622 10623 10623 10624 10625 10627 10629 10630 10630 10631 10631 10632 10632 10633 10633 10633 10633 10634 10634 10634 10635 10635 10636 10636 10636 10636 10636 10637 10637 10637 10636 10636 10635 10634 10634 10634 10635 10635 10635 10636 10635 10634 10633 10633 10632 10631 10631 10630 10630 10630 10630 10629 10628 10627 10626
10608 10609 10610 10611 10611 10612 10613 10615 10617 10618 10619 10619 10621 10622 10624 10625 10625 10625 10626 10627 10628 10629 10629 10629 10629 10630 10630 10631 10631 10631 10631 10631 10631 10632 10632 10632 10632 10632 10632 10631 10631 10630 10629 10629 10630 10630 10630 10630 10629 10628 10627 10627 10626 10626 10625 10625 10624 10623 10623 10623 10622 10621 10621
10602 10603 10604 10605 10606 10607 10609 10611 10613 10614 10615 10616 10617 10618 10620 10621 10621 10621 10621 10622 10624 10625 10625 10625 10626 10626 10627 10627 10627 10627 10627 10626 10627 10627 10627 10627 10628 10628 10628 10627 10626 10626 10625 10625 10625 10625 10625 10624 10624 10622 10621 10621 10620 10620 10620 10619 10617 10617 10616 10616 10616 10616 10615
10597 10598 10599 10601 10602 10604 10606 10607 10609 10610 10611 10612 10613 10614 10616 10617 10617 10617 10617 10618 10619 10620 10621 10622 10622 10623 10623 10624 10623 10623 10623 10622 10622 10622 10622 10622 10623 10623 10623 10622 10622 10621 10621 10620 10620 10620 10619 10619 10618 10617 10616 10615 10614 10614 10614 10613 10611 10610 10610 10609 10608 10609 10609
10593 10595 10596 10598 10599 10601 10603 10604 10605 10606 10607 10608 10609 10610 10611 10612 10613 10613 10614 10614 10615 10615 10617 10618 10618 10619 10619 10620 10620 10619 10619 10618 10617 10617 10617 10617 10618 10618 10617 10617 10617 10616 10616 10615 10615 10614 10614 10613 10613 10612 10611 10610 10609 10608 10607 10607 10606 10604 10604 10603 10601 10601 10602
10591 10592 10593 10594 10596 10598 10599 10600 10600 10601 10602 10603 10605 10606 10608 10608 10609 10609 10610 10610 10610 10611 10612 10613 10613 10614 10615 10615 10615 10615 10615 10614 10613 10613 10612 10612 10613 10613 10612 10612 10611 10611 10611 10610 10609 10608 10608 10608 10608 10607 10606 10605 10604 10603 10602 10601 10600 10599 10598 10597 10595 10594 10594
10588 10589 10590 10591 10593 10595 10595 10595 10596 10597 10597 10599 10600 10602 10603 10604 10605 10605 10606 10606 10607 10607 10608 10608 10609 10609 10609 10610 10610 10610 10610 10609 10609 10608 10608 10608 10608 10608 10608 10607 10607 10606 10606 10605 10604 10603 10602 10602 10602 10602 10601 10600 10598 10597 10596 10595 10594 10593 10592 10591 10589 10588 10587
10585 10585 10585 10586 10589 10591 10591 10591 10592 10592 10593 10595 10596 10597 10598 10600 10600 10601 10601 10602 10603 10603 10603 10604 10604 10604 10604 10604 10605 10605 10605 10604 10604 10603 10603 10603 10603 10603 10603 10603 10602 10602 10601 10600 10599 10598 10597 10596 10595 10595 10595 10594 10592 10591 10590 10589 10588 10587 10586 10585 10583 10582 10580
10581 10580 10580 10581 10583 10585 10585 10585 10586 10588 10590 10591 10592 10592 10594 10595 10596 10596 10597 10598 10598 10598 10599 10599 10599 10599 10599 10599 10600 10600 10600 10599 10599 10598 10598 10597 10597 10597 10597 10597 10597 10597 10596 10594 10593 10592 10590 10589 10588 10587 10587 10586 10586 10584 10583 10582 10581 10580 10579 10578 10577 10576 10575
10577 10577 10576 10576 10578 10578 10578 10579 10581 10583 10585 10586 10587 10588 10589 10590 10591 10591 10592 10593 10593 10593 10593 10593 10594 10594 10594 10594 10594 10594 10594 10594 10594 10593 10593 10592 10592 10591 10591 10591 10591 10590 10589 10588 10587 10585 10584 10582 10580 10579 10578 10578 10577 10577 10576 10575 10574 10573 10572 10571 10570 10569 10568
10573 10573 10572 10572 10573 10573 10573 10575 10576 10578 10580 10581 10582 10583 10584 10585 10585 10586 10586 10587 10586 10586 10587 10587 10588 10588 10588 10588 10588 10589 10589 10589 10589 10589 10588 10587 10587 10586 10585 10584 10583 10583 10582 10581 10580 10578 10577 10575 10574 10572 10570 10569 10568 10568 10567 10566 10566 10565 10564 10563 10562 10562 10561
10569 10568 10569 10569 10570 10570 10570 10571 10572 10573 10574 10575 10576 10577 10578 10578 10579 10580 10581 10581 10580 10580 10580 10581 10581 10582 10582 10582 10582 10582 10582 10583 10583 10583 10582 10582 10581 10580 10579 10578 10577 10575 10574 10573 10572 10571 10569 10568 10566 10565 10563 10562 10561 10560 10559 10558 10557 10556 10556 10555 10554 10553 10553
10563 10564 10565 10566 10565 10565 10566 10566 10567 10568 10569 10569 10570 10570 10571 10572 10572 10573 10573 10574 10574 10574 10574 10575 10575 10576 10576 10576 10576 10576 10576 10576 10576 10576 10576 10575 10575 10574 10573 10571 10570 10569 10567 10566 10565 10563 10561 10560 10559 10557 10556 10554 10553 10552 10551 10550 10549 10548 10547 10545 10544 10543 10542
10558 10559 10561 10561 10560 10560 10561 10562 10562 10563 10563 10564 10564 10564 10564 10565 10565 10566 10566 10567 10567 10567 10567 10568 10568 10569 10569 10569 10569 10569 10569 10569 10569 10569 10568 10568 10567 10567 10566 10564 10563 10562 10560 10559 10557 10556 10553 10551 10550 10549 10547 10546 10545 10543 10542 10541 10540 10539 10538 10536 10535 10533 10532
10555 10555 10556 10556 10556 10556 10556 10557 10557 10557 10557 10557 10557 10557 10558 10559 10559 10559 10560 10560 10560 10561 10561 10561 10561 10562 10562 10562 10562 10563 10563 10562 10562 10561 10560 10560 10559 10558 10557 10556 10555 10553 10552 10551 10549 10547 10545 10543 10541 10540 10539 10538 10537 10536 10535 10534 10533 10532 10530 10529 10528 10526 10524
10551 10551 10551 10552 10551 10551 10551 10551 10550 10550 10550 10550 10551 10551 10552 10553 10553 10554 10554 10554 10554 10554 10554 10555 10555 10556 10556 10556 10556 10556 10556 10555 10555 10554 10553 10552 10551 10550 10549 10548 10546 10544 10543 10542 10540 10539 10537 10535 10534 10533 10532 10531 10530 10529 10528 10527 10526 10525 10523 10522 10521 10519 10518
10548 10547 10546 10546 10546 10546 10545 10545 10544 10544 10543 10544 10545 10545 10546 10546 10547 10547 10547 10547 10547 10546 10547 10548 10549 10549 10549 10549 10549 10549 10548 10548 10547 10546 10545 10544 10543 10542 10541 10539 10538 10536 10534 10533 10532 10531 10530 10528 10527 10526 10525 10524 10522 10521 10520 10520 10518 10517 10515 10514 10513 10511 10509
10544 10541 10541 10542 10541 10541 10540 10539 10538 10538 10538 10538 10538 10539 10539 10540 10540 10540 10540 10540 10541 10540 10540 10541 10542 10543 10542 10542 10541 10540 10540 10539 10539 10538 10537 10535 10534 10533 10532 10531 10529 10528 10527 10526 10524 10523 10522 10521 10520 10519 10518 10516 10515 10513 10513 10512 10510 10508 10507 10506 10504 10502 10501
10538 10536 10536 10537 10536 10535 10534 10533 10532 10532 10532 10532 10532 10532 10532 10532 10533 10533 10533 10533 10534 10534 10534 10533 10534 10534 10534 10534 10533 10532 10532 10531 10530 10529 10528 10527 10525 10524 10523 10522 10521 10519 10518 10518 10517 10515 10514 10513 10512 10512 10511 10509 10508 10506 10506 10505 10503 10501 10499 10498 10497 10495 10494
10533 10531 10531 10532 10531 10529 10527 10526 10526 10527 10527 10526 10526 10526 10526 10526 10526 10526 10525 10525 10525 10526 10527 10526 10525 10525 10525 10525 10524 10524 10523 10523 10522 10520 10519 10517 10516 10515 10514 10513 10512 10510 10509 10509 10508 10507 10506 10505 10505 10504 10503 10501 10500 10499 10498 10497 10496 10495 10493 10492 10490 10488 10487
10527 10525 10525 10527 10526 10523 10521 10521 10521 10521 10521 10521 10520 10520 10519 10519 10519 10519 10518 10518 10517 10517 10518 10517 10517 10516 10516 10515 10515 10514 10514 10513 10512 10511 10509 10508 10507 10506 10505 10504 10502 10501 10499 10498 10498 10497 10497 10496 10496 10495 10494 10493 10492 10491 10491 10490 10489 10488 10487 10486 10485 10483 10481
10520 10518 10519 10520 10520 10517 10515 10514 10515 10515 10514 10513 10513 10513 10512 10512 10511 10511 10511 10511 10510 10510 10510 10510 10509 10509 10508 10507 10506 10505 10505 10504 10503 10502 10500 10498 10497 10496 10495 10494 10492 10491 10489 10487 10486 10486 10486 10486 10486 10486 10485 10484 10483 10483 10481 10479 10479 10478 10477 10477 10477 10476 10474
10513 10512 10512 10513 10513 10511 10507 10507 10509 10508 10506 10505 10505 10504 10503 10503 10503 10503 10502 10502 10502 10502 10503 10502 10502 10501 10500 10499 10498 10497 10496 10495 10494 10493 10492 10490 10489 10487 10485 10484 10482 10481 10479 10477 10476 10476 10475 10475 10475 10475 10474 10474 10473 10473 10470 10468 10468 10467 10466 10466 10466 10466 10465
10507 10506 10506 10506 10507 10505 10502 10501 10502 10500 10497 10496 10496 10496 10495 10495 10495 10494 10493 10492 10491 10491 10492 10492 10492 10491 10490 10489 10488 10488 10487 10486 10485 10485 10484 10482 10480 10478 10476 10475 10473 10472 10471 10469 10468 10467 10467 10466 10465 10464 10464 10464 10463 10462 10460 10458 10458 10457 10455 10455 10455 10455 10455
10499 10499 10498 10498 10498 10498 10496 10495 10496 10494 10491 10488 10486 10486 10486 10486 10487 10486 10485 10483 10481 10480 10479 10480 10481 10481 10480 10480 10479 10478 10477 10477 10477 10476 10475 10473 10472 10470 10467 10465 10464 10462 10461 10461 10460 10459 10458 10458 10457 10457 10456 10456 10455 10454 10452 10450 10450 10448 10446 10446 10445 10445 10445
10489 10489 10489 10489 10489 10489 10489 10488 10488 10488 10486 10483 10479 10476 10475 10476 10477 10477 10476 10475 10473 10471 10469 10468 10468 10468 10469 10468 10468 10467 10467 10467 10467 10466 10465 10464 10462 10461 10459 10456 10454 10452 10451 10451 10450 10449 10448 10447 10446 10447 10447 10446 10444 10444 10443 10443 10442 10441 10439 10438 10437 10436 10436
10479 10478 10479 10479 10480 10480 10480 10479 10478 10478 10478 10477 10473 10469 10467 10466 10465 10465 10465 10465 10463 10462 10460 10458 10456 10456 10455 10455 10456 10455 10455 10454 10454 10454 10454 10453 10451 10450 10449 10447 10445 10442 10440 10440 10440 10439 10437 10436 10435 10436 10435 10433 10431 10430 10430 10430 10430 10430 10429 10428 10427 10427 10427
10469 10469 10469 10469 10470 10471 10470 10469 10469 10468 10467 10466 10464 10462 10460 10458 10456 10455 10454 10453 10453 10452 10451 10449 10447 10445 10444 10444 10443 10444 10444 10443 10442 10442 10443 10442 10440 10439 10438 10437 10435 10432 10430 10429 10428 10428 10427 10426 10425 10425 10424 10423 10421 10420 10419 10418 10417 10416 10415 10415 10415 10415 10414
10459 10459 10459 10460 10460 10461 10461 10460 10459 10458 10457 10455 10453 10452 10451 10449 10448 10446 10445 10443 10442 10441 10440 10440 10438 10436 10435 10434 10432 10431 10431 10431 10430 10430 10431 10430 10429 10429 10428 10427 10425 10422 10419 10417 10416 10415 10414 10414 10414 10413 10412 10410 10410 10410 10410 10407 10404 10403 10402 10402 10401 10401 10400